Regional Weather Roundup
Issued by NWS

Home | Current Version | Previous Version | Graphics & Text | Print | Product List | Glossary On
Versions: 1 2 3 4 5 6 7 8 9 10 11 12 13 14 15 16 17 18 19 20 21 22 23 24 25 26 27 28 29 30 31 32 33 34 35 36 37 38 39 40 41 42 43 44 45 46 47 48 49 50
000
ASUS43 KLSX 160959
RWRMO

WEATHER SUMMARY FOR MISSOURI
NATIONAL WEATHER SERVICE SPRINGFIELD MO
500 AM CDT WED APR 16 2014

NOTE: "FAIR" INDICATES FEW OR NO CLOUDS BELOW 12,000 FEET WITH NO
       SIGNIFICANT WEATHER AND/OR OBSTRUCTIONS TO VISIBILITY.
       CURRENT SKY AND/OR WEATHER CONDITIONS ARE NOT AVAILABLE FOR
       CHILLICOTHE AND FARMINGTON.

MOZ001>031-035>038-043-044-053-054-161100-
...NORTHERN AND WESTERN MISSOURI...

CITY           SKY/WX    TMP DP  RH WIND       PRES   REMARKS
KANSAS CTY INT PTCLDY    45  24  43 S18       29.94F
KANSAS C DTWN  CLEAR     47  24  40 S16G29    29.96F
LEE`S SUMMIT   CLEAR     44  24  45 S15G23    29.98F
ST JOSEPH      PTCLDY    46  26  45 S17       29.91F
KIRKSVILLE     CLEAR     36  24  62 S13       30.05S WCI  27

$$
MOZ066>068-077>081-088>096-101>105-161100-
...SOUTHWEST MISSOURI...

CITY           SKY/WX    TMP DP  RH WIND       PRES   REMARKS
SPRINGFIELD    CLEAR     40  27  59 SE16      30.08S
JOPLIN         PTCLDY    44  26  49 S14       30.04S

$$
MOZ032>034-039>042-045>050-055>058-069>072-161100-
...CENTRAL MISSOURI...

CITY           SKY/WX    TMP DP  RH WIND       PRES   REMARKS
COLUMBIA       CLEAR     37  23  56 SE13      30.09F WCI  29
JEFFERSON CITY CLEAR     39  24  55 E10       30.12F
ROLLA          CLEAR     36  26  67 S15       30.13F WCI  27
SEDALIA        CLEAR     42  25  50 S15       30.05F
OSAGE BEACH    CLEAR     39  21  48 SE8       30.12F

$$
MOZ051-052-059>065-161100-
...EAST CENTRAL MISSOURI...

CITY           SKY/WX    TMP DP  RH WIND       PRES   REMARKS
ST LOUIS INTL  PTCLDY    40  22  48 SE12      30.22R
SPIRIT OF STL  CLEAR     38  21  50 S7        30.20S
ST CHARLES     CLEAR     35  26  69 SE9       30.21S WCI  28

$$
MOZ072>076-082>087-097>100-106>115-161100-
...SOUTH CENTRAL AND SOUTHEAST MISSOURI...

CITY           SKY/WX    TMP DP  RH WIND       PRES   REMARKS
CAPE GIRARDEAU CLEAR     34  28  79 SE7       30.26F WCI  28
FARMINGTON     CLEAR     34  23  64 S6        30.23S WCI  29
POPLAR BLUFF   CLEAR     35  30  82 MISG      30.24S
WEST PLAINS    CLEAR     35  27  72 SE7       30.17F WCI  29

$$



USA.gov is the U.S. government's official web portal to all federal, state and local government web resources and services.